Location: Göttingen
(51.5413°N, 9.9158°E)
Time: 03:34:52
(UTC+02:00)

Envisat - Pass Details

Date: 23 January 2022
Orbit: 764 x 765 km, 98.2° (Epoch: 28 May)

Event Time Altitude Azimuth Distance (km) Brightness Sun altitude
Rises 07:08:12 0° 4° (N) 3,244 6.1 -9.7°
Reaches altitude 10° 07:11:11 10° 347° (NNW) 2,313 5.2 -9.3°
Maximum altitude 07:14:31 18° 305° (NW) 1,818 4.4 -8.8°
Drops below altitude 10° 07:17:51 10° 264° (W) 2,304 4.9 -8.3°
Sets 07:20:48 0° 246° (WSW) 3,226 5.8 -7.9°
